EW1744 Weather Reports


Display with metric or nautical units.
time (UTC)temp
F
wind
direction
speed
MPH
gust
MPH
rain 1hr
in
rain 24hr
in
rain mn
in
humidity
%
barometer
mb
20260506090904 64 159 2.0 5.0 0.00 0.00 0.00 69 1009.2
20260506090630 64 264 1.0 5.0 0.00 0.00 0.00 69 1009.1
20260506085905 64 250 1.0 5.0 0.00 0.00 0.00 69 1009.2
20260506085405 64 284 1.0 6.0 0.00 0.00 0.00 68 1009.1
20260506084903 64 179 1.0 6.0 0.00 0.00 0.00 68 1009.1
20260506084404 64 278 2.0 6.0 0.00 0.00 0.00 68 1009.1
20260506083903 64 104 2.0 6.0 0.00 0.00 0.00 68 1009.1
20260506083628 64 286 2.0 7.0 0.00 0.00 0.00 67 1009.1
20260506083122 64 266 2.0 7.0 0.00 0.00 0.00 67 1009.1
20260506082402 64 186 2.0 8.0 0.00 0.00 0.00 67 1009.1
20260506082125 64 253 1.0 8.0 0.00 0.00 0.00 67 1009.1
20260506081402 64 300 1.0 8.0 0.00 0.00 0.00 67 1009.0
20260506080902 65 343 2.0 8.0 0.00 0.00 0.00 66 1009.1
20260506080617 64 274 1.0 6.0 0.00 0.00 0.00 66 1009.1
20260506080126 65 283 2.0 5.0 0.00 0.00 0.00 66 1009.0
20260506073400 65 276 1.0 6.0 0.00 0.00 0.00 65 1008.7
20260506072900 65 259 2.0 6.0 0.00 0.00 0.00 65 1008.7
20260506072400 65 266 1.0 6.0 0.00 0.00 0.00 65 1008.7
20260506071901 65 279 1.0 6.0 0.00 0.00 0.00 65 1008.7
20260506071400 65 262 1.0 6.0 0.00 0.00 0.00 64 1008.6
20260506071122 65 253 1.0 9.0 0.00 0.00 0.00 64 1008.6
20260506070400 65 276 1.0 9.0 0.00 0.00 0.00 64 1008.6
20260506070131 65 274 2.0 9.0 0.00 0.00 0.00 64 1008.6
20260506062359 65 243 1.0 6.0 0.00 0.00 0.00 63 1008.7
20260506062127 65 278 1.0 6.0 0.00 0.00 0.00 63 1008.6
20260506061358 65 229 1.0 4.0 0.00 0.00 0.00 63 1008.6
20260506060858 65 283 1.0 2.0 0.00 0.00 0.00 63 1008.7
20260506060359 65 255 0.0 3.0 0.00 0.00 0.00 63 1008.6
20260506050856 65 267 1.0 4.0 0.00 0.00 0.00 62 1009.2
20260506050838 65 265 1.0 7.0 0.00 0.00 0.00 61 1009.1
20260506044856 66 271 1.0 7.0 0.00 0.00 0.00 61 1009.2
20260506044356 66 278 1.0 5.0 0.00 0.00 0.00 60 1009.2
20260506044112 66 258 2.0 5.0 0.00 0.00 0.00 60 1009.2
20260506043353 66 267 2.0 5.0 0.00 0.00 0.00 60 1009.2
20260506042852 66 261 1.0 4.0 0.00 0.00 0.00 60 1009.2
20260506042352 67 251 1.0 7.0 0.00 0.00 0.00 59 1009.2
20260506041851 67 311 2.0 7.0 0.00 0.00 0.00 59 1009.2
20260506041351 67 264 2.0 8.0 0.00 0.00 0.00 59 1009.2
20260506041111 67 262 1.0 8.0 0.00 0.00 0.00 59 1009.2
20260506040349 67 239 1.0 8.0 0.00 0.00 0.00 59 1009.1
20260506040109 67 143 2.0 8.0 0.00 0.00 0.00 58 1009.1
20260506035350 67 267 2.0 8.0 0.00 0.00 0.00 58 1009.0
20260506034851 67 267 2.0 8.0 0.00 0.00 0.00 58 1009.0
20260506034351 67 260 2.0 12.0 0.00 0.00 0.00 58 1008.9
20260506034111 67 276 1.0 12.0 0.00 0.00 0.00 58 1009.0
20260506033348 68 241 2.0 12.0 0.00 0.00 0.00 58 1009.0
20260506032848 68 233 2.0 12.0 0.00 0.00 0.00 58 1009.0
20260506032605 68 203 2.0 7.0 0.00 0.00 0.00 58 1009.0
20260506031849 68 248 2.0 7.0 0.00 0.00 0.00 58 1009.0
20260506031348 68 236 2.0 7.0 0.00 0.00 0.00 58 1008.9
20260506031109 68 267 2.0 7.0 0.00 0.00 0.00 58 1008.9
20260506030350 69 271 2.0 7.0 0.00 0.00 0.00 57 1008.8
20260506025849 69 223 2.0 8.0 0.00 0.00 0.00 57 1008.8
20260506025617 69 289 2.0 8.0 0.00 0.00 0.00 57 1008.7
20260506024902 69 218 1.0 8.0 0.00 0.00 0.00 56 1008.8
20260506024349 69 257 2.0 8.0 0.00 0.00 0.00 56 1008.8
20260506023848 70 240 2.0 8.0 0.00 0.00 0.00 55 1008.8
20260506023348 70 272 2.0 8.0 0.00 0.00 0.00 55 1008.8
20260506022849 70 276 2.0 8.0 0.00 0.00 0.00 55 1008.8
20260506022346 70 261 2.0 8.0 0.00 0.00 0.00 55 1008.7
20260506021846 70 278 1.0 8.0 0.00 0.00 0.00 55 1008.9
20260506021346 70 265 1.0 5.0 0.00 0.00 0.00 54 1008.9
20260506021109 70 271 1.0 4.0 0.00 0.00 0.00 54 1008.9
20260506020344 70 280 1.0 5.0 0.00 0.00 0.00 54 1009.0
20260506015844 70 284 1.0 5.0 0.00 0.00 0.00 54 1009.0
20260506015344 70 233 1.0 4.0 0.00 0.00 0.00 54 1009.0
20260506014844 71 265 1.0 4.0 0.00 0.00 0.00 54 1009.0
20260506014344 71 259 1.0 4.0 0.00 0.00 0.00 53 1009.0
20260506013844 71 247 1.0 7.0 0.00 0.00 0.00 53 1009.1
20260506013604 71 276 1.0 7.0 0.00 0.00 0.00 53 1009.0
20260506012844 71 262 2.0 7.0 0.00 0.00 0.00 53 1008.9
20260506012345 71 249 2.0 7.0 0.00 0.00 0.00 53 1008.9
20260506012105 71 269 1.0 5.0 0.00 0.00 0.00 53 1008.7
20260506011344 71 241 0.0 3.0 0.00 0.00 0.00 53 1008.8
20260506010844 71 265 0.0 2.0 0.00 0.00 0.00 53 1008.9
20260506010603 71 266 1.0 9.0 0.00 0.00 0.00 53 1008.8
20260506005843 71 266 1.0 9.0 0.00 0.00 0.00 53 1008.5
20260506005342 71 286 2.0 9.0 0.00 0.00 0.00 52 1008.3
20260506004843 71 276 2.0 9.0 0.00 0.00 0.00 52 1007.8
20260506004343 72 235 2.0 8.0 0.00 0.00 0.00 52 1007.5
20260506003842 72 265 2.0 13.0 0.00 0.00 0.00 52 1007.5
20260506003341 72 245 2.0 13.0 0.00 0.00 0.00 52 1007.5
20260506003106 73 257 2.0 13.0 0.00 0.00 0.00 51 1007.4
20260506002601 73 266 3.0 13.0 0.00 0.00 0.00 51 1007.1
20260506001841 73 309 3.0 13.0 0.00 0.00 0.00 50 1007.0
20260506001342 73 306 2.0 13.0 0.00 0.00 0.00 51 1007.0
20260506000841 73 252 2.0 13.0 0.00 0.00 0.00 51 1006.9
20260506000340 73 124 2.0 13.0 0.00 0.00 0.00 50 1006.9
20260505235840 74 188 3.0 13.0 0.00 0.00 0.00 50 1006.7
20260505235339 74 276 3.0 9.0 0.00 0.00 0.00 50 1006.6
20260505234840 74 282 3.0 9.0 0.00 0.00 0.00 50 1006.6
20260505234600 74 168 3.0 7.0 0.00 0.00 0.00 50 1006.5
20260505233838 74 299 3.0 8.0 0.00 0.00 0.00 50 1006.6
20260505233557 74 282 2.0 8.0 0.00 0.00 0.00 50 1006.6
20260505232840 74 145 2.0 8.0 0.00 0.00 0.00 49 1006.6
20260505232340 75 222 3.0 8.0 0.00 0.00 0.00 49 1006.5
20260505231840 75 254 3.0 8.0 0.00 0.00 0.00 49 1006.3
20260505231557 75 241 4.0 10.0 0.00 0.00 0.00 49 1006.1
20260505230854 75 248 4.0 10.0 0.00 0.00 0.00 49 1006.0
20260505230340 75 276 3.0 8.0 0.00 0.00 0.00 49 1005.8
20260505225840 74 307 3.0 7.0 0.00 0.00 0.00 50 1005.7
20260505225340 74 257 3.0 12.0 0.00 0.00 0.00 50 1005.5
20260505224840 74 203 3.0 12.0 0.00 0.00 0.00 50 1005.4
20260505224337 74 160 4.0 12.0 0.00 0.00 0.00 50 1005.5
20260505224321 74 162 3.0 12.0 0.00 0.00 0.00 51 1005.3
20260505223338 73 158 3.0 12.0 0.00 0.00 0.00 51 1005.3
20260505222838 73 296 2.0 11.0 0.00 0.00 0.00 52 1005.1
20260505222337 73 277 2.0 11.0 0.00 0.00 0.00 53 1005.2
20260505221837 72 250 2.0 11.0 0.00 0.00 0.00 52 1005.1
20260505221558 72 259 2.0 6.0 0.00 0.00 0.00 52 1005.2
20260505220838 73 141 2.0 11.0 0.00 0.00 0.00 52 1005.0
20260505220337 73 273 3.0 11.0 0.00 0.00 0.00 52 1005.0
20260505215838 73 120 3.0 11.0 0.00 0.00 0.00 51 1004.9
20260505215337 73 77 4.0 11.0 0.00 0.00 0.00 51 1004.7
20260505214838 74 252 3.0 10.0 0.00 0.00 0.00 51 1004.8
20260505214335 73 225 3.0 10.0 0.00 0.00 0.00 51 1004.8
20260505213833 73 178 3.0 12.0 0.00 0.00 0.00 52 1004.7
20260505213332 73 287 3.0 12.0 0.00 0.00 0.00 52 1004.7
20260505212832 73 142 3.0 9.0 0.00 0.00 0.00 52 1004.7
20260505212332 73 174 3.0 11.0 0.00 0.00 0.00 52 1004.6
20260505211832 73 110 3.0 11.0 0.00 0.00 0.00 52 1004.6
20260505211559 73 158 3.0 11.0 0.00 0.00 0.00 52 1004.6
20260505210833 73 219 3.0 14.0 0.00 0.00 0.00 53 1004.6
20260505210550 72 278 3.0 14.0 0.00 0.00 0.00 53 1004.7
20260505205833 72 301 3.0 7.0 0.00 0.00 0.00 53 1004.6
20260505205333 72 204 3.0 9.0 0.00 0.00 0.00 53 1004.6
20260505204832 72 267 3.0 10.0 0.00 0.00 0.00 53 1004.8
20260505204331 73 134 3.0 10.0 0.00 0.00 0.00 51 1004.6
20260505204056 73 240 3.0 10.0 0.00 0.00 0.00 51 1004.5
20260505203331 73 293 3.0 10.0 0.00 0.00 0.00 51 1004.6
20260505202831 74 266 3.0 11.0 0.00 0.00 0.00 50 1004.8
20260505202331 74 181 3.0 11.0 0.00 0.00 0.00 49 1004.8
20260505202101 75 155 3.0 11.0 0.00 0.00 0.00 49 1004.6
20260505201331 75 269 3.0 11.0 0.00 0.00 0.00 48 1004.7
20260505200831 75 278 3.0 11.0 0.00 0.00 0.00 48 1004.8
20260505200332 76 165 4.0 11.0 0.00 0.00 0.00 49 1004.8
20260505195832 76 125 4.0 14.0 0.00 0.00 0.00 48 1004.7
20260505195552 76 153 4.0 14.0 0.00 0.00 0.00 48 1004.9
20260505194831 75 218 3.0 10.0 0.00 0.00 0.00 49 1004.7
20260505194331 75 245 3.0 10.0 0.00 0.00 0.00 49 1004.8
20260505194052 74 103 4.0 11.0 0.00 0.00 0.00 50 1005.0
20260505193332 74 256 4.0 12.0 0.00 0.00 0.00 51 1004.9
20260505192831 74 162 4.0 12.0 0.00 0.00 0.00 52 1005.2
20260505192555 74 208 4.0 12.0 0.00 0.00 0.00 51 1005.2
20260505191833 74 203 3.0 12.0 0.00 0.00 0.00 52 1005.5
20260505191333 74 326 3.0 14.0 0.00 0.00 0.00 53 1005.6
20260505190829 73 221 4.0 14.0 0.00 0.00 0.00 53 1005.4
20260505190330 73 152 3.0 10.0 0.00 0.00 0.00 53 1005.6
20260505185829 73 202 4.0 10.0 0.00 0.00 0.00 53 1005.8
20260505185820 74 136 4.0 10.0 0.00 0.00 0.00 52 1005.9
20260505184829 74 108 3.0 9.0 0.00 0.00 0.00 52 1006.0
20260505184329 74 85 4.0 10.0 0.00 0.00 0.00 52 1005.9
20260505183829 75 143 4.0 11.0 0.00 0.00 0.00 51 1006.1
20260505183329 75 124 3.0 11.0 0.00 0.00 0.00 49 1006.0
20260505182827 76 225 3.0 8.0 0.00 0.00 0.00 50 1006.0
20260505182327 76 79 3.0 8.0 0.00 0.00 0.00 50 1006.1
20260505181828 75 158 3.0 8.0 0.00 0.00 0.00 51 1006.2
20260505181327 75 142 3.0 7.0 0.00 0.00 0.00 50 1006.2
20260505180828 75 143 3.0 7.0 0.00 0.00 0.00 50 1006.2
20260505180327 75 214 4.0 8.0 0.00 0.00 0.00 50 1006.4
20260505175827 76 188 3.0 8.0 0.00 0.00 0.00 50 1006.4
20260505175553 76 82 3.0 8.0 0.00 0.00 0.00 50 1006.4
20260505174828 75 188 3.0 8.0 0.00 0.00 0.00 50 1006.5
20260505174327 75 176 3.0 12.0 0.00 0.00 0.00 50 1006.7
20260505173828 75 146 3.0 12.0 0.00 0.00 0.00 49 1006.6
20260505173328 76 143 4.0 12.0 0.00 0.00 0.00 49 1006.8
20260505172827 76 224 4.0 12.0 0.00 0.00 0.00 48 1006.8
20260505172809 78 252 3.0 8.0 0.00 0.00 0.00 45 1006.9
20260505171829 80 190 2.0 8.0 0.00 0.00 0.00 44 1006.9
20260505171548 81 166 2.0 9.0 0.00 0.00 0.00 44 1006.9
20260505170829 82 219 3.0 9.0 0.00 0.00 0.00 41 1007.0
20260505170328 82 283 3.0 13.0 0.00 0.00 0.00 41 1007.0
20260505165828 82 261 3.0 13.0 0.00 0.00 0.00 41 1007.1
20260505165325 82 232 3.0 13.0 0.00 0.00 0.00 40 1007.0
20260505164825 81 288 4.0 13.0 0.00 0.00 0.00 42 1007.1
20260505164325 81 260 4.0 8.0 0.00 0.00 0.00 40 1007.0
20260505163823 81 196 4.0 11.0 0.00 0.00 0.00 41 1007.1
20260505163324 81 263 4.0 11.0 0.00 0.00 0.00 41 1007.2
20260505162824 81 276 3.0 11.0 0.00 0.00 0.00 42 1007.4
20260505162541 81 254 3.0 12.0 0.00 0.00 0.00 41 1007.5
20260505161825 80 236 3.0 12.0 0.00 0.00 0.00 43 1007.7
20260505161818 79 264 4.0 12.0 0.00 0.00 0.00 43 1007.9
20260505160824 79 281 4.0 12.0 0.00 0.00 0.00 43 1008.0
20260505160323 79 42 3.0 12.0 0.00 0.00 0.00 43 1008.1
20260505153324 77 253 3.0 11.0 0.00 0.00 0.00 45 1008.4
20260505152824 77 250 3.0 11.0 0.00 0.00 0.00 46 1008.5
20260505152325 77 275 4.0 11.0 0.00 0.00 0.00 46 1008.6
20260505151825 76 279 3.0 11.0 0.00 0.00 0.00 47 1008.6
20260505151324 76 281 3.0 9.0 0.00 0.00 0.00 46 1008.6
20260505150824 76 169 2.0 8.0 0.00 0.00 0.00 46 1008.7
20260505150539 76 276 2.0 10.0 0.00 0.00 0.00 47 1008.8
20260505140319 72 282 3.0 8.0 0.00 0.00 0.00 51 1009.0
20260505124815 67 256 2.0 8.0 0.00 0.00 0.00 57 1009.2
20260505124315 66 245 2.0 13.0 0.00 0.00 0.00 57 1009.2
20260505123815 66 267 3.0 13.0 0.00 0.00 0.00 56 1009.3
20260505123315 66 287 4.0 13.0 0.00 0.00 0.00 56 1009.4
20260505122814 67 285 4.0 13.0 0.00 0.00 0.00 55 1009.4
20260505122327 66 264 2.0 10.0 0.00 0.00 0.00 56 1009.1
20260505121814 66 302 2.0 10.0 0.00 0.00 0.00 56 1008.9
20260505121315 66 266 3.0 10.0 0.00 0.00 0.00 57 1009.0
20260505120816 65 337 2.0 5.0 0.00 0.00 0.00 58 1008.9
20260505120312 65 236 1.0 5.0 0.00 0.00 0.00 58 1008.8
20260505120033 64 233 2.0 9.0 0.00 0.00 0.00 59 1008.9
20260505115313 63 274 2.0 9.0 0.00 0.00 0.00 60 1009.0
20260505114812 63 255 2.0 6.0 0.00 0.00 0.00 60 1008.9
20260505114312 62 255 1.0 6.0 0.00 0.00 0.00 61 1009.0
20260505113812 62 277 2.0 9.0 0.00 0.00 0.00 61 1009.1
20260505113313 61 265 2.0 9.0 0.00 0.00 0.00 61 1009.2
20260505112813 61 264 1.0 9.0 0.00 0.00 0.00 62 1009.2
20260505112312 60 264 2.0 9.0 0.00 0.00 0.00 62 1009.2
20260505111813 60 278 2.0 6.0 0.00 0.00 0.00 62 1009.2
20260505111313 59 307 1.0 4.0 0.00 0.00 0.00 63 1009.2
20260505110811 59 44 0.0 2.0 0.00 0.00 0.00 63 1009.2
20260505110311 58 252 1.0 6.0 0.00 0.00 0.00 64 1009.2
20260505102027 56 277 0.0 2.0 0.00 0.00 0.00 65 1009.2
20260505101308 56 309 0.0 3.0 0.00 0.00 0.00 65 1009.1
20260505100807 56 266 0.0 3.0 0.00 0.00 0.00 65 1009.1
20260505100305 56 309 0.0 3.0 0.00 0.00 0.00 66 1009.1
20260505100034 55 282 0.0 3.0 0.00 0.00 0.00 66 1009.1
20260505095306 55 238 0.0 2.0 0.00 0.00 0.00 66 1009.1
20260505094806 55 282 0.0 2.0 0.00 0.00 0.00 66 1009.1
20260505094306 55 303 0.0 2.0 0.00 0.00 0.00 67 1009.1
20260505093806 54 264 0.0 2.0 0.00 0.00 0.00 67 1009.2
20260505093306 54 235 0.0 2.0 0.00 0.00 0.00 67 1009.2
20260505092807 54 240 0.0 2.0 0.00 0.00 0.00 68 1009.2
20260505092306 53 259 0.0 1.0 0.00 0.00 0.00 69 1009.1
20260505091806 53 262 0.0 1.0 0.00 0.00 0.00 69 1009.1
20260505091531 53 262 0.0 1.0 0.00 0.00 0.00 68 1009.2
20260505091032 53 262 0.0 1.0 0.00 0.00 0.00 68 1009.2